Stations météo

réclame
Mon MeteoGroup
Lentran, Grande-Bretagne (99125): Température de l'air & dewpoint: 11.10.2018 07:00:00 - 17.10.2018 07:00:00 (BST)Lentran, Grande-Bretagne (99125): Quantités de précipitations: 11.10.2018 07:00:00 - 17.10.2018 07:00:00 (BST)
Date & Time tt [°C] td [°C] rr [mm]
17.10.2018 07:00:00 8,0 6,0 0,0
17.10.2018 06:00:00 9,0 6,0 0,0
17.10.2018 05:00:00 9,3 5,6 0,0
17.10.2018 04:00:00 9,2 6,0 0,0
17.10.2018 03:00:00 8,0 6,0 0,0
17.10.2018 02:00:00 8,3 5,8 0,0
17.10.2018 01:00:00 9,0 7,0 0,0
17.10.2018 00:00:00 10,5 8,1 0,0
16.10.2018 23:00:00 10,3 8,0 0,0
16.10.2018 22:00:00 10,6 7,9 0,0
16.10.2018 21:00:00 10,8 7,9 0,0
16.10.2018 20:00:00 10,7 7,7 0,0
16.10.2018 19:00:00 10,7 7,8 0,0
16.10.2018 18:00:00 11,4 7,3 0,0
16.10.2018 17:00:00 12,3 7,5 0,0
16.10.2018 16:00:00 12,6 8,3 0,0
16.10.2018 15:00:00 12,7 8,9 0,0
16.10.2018 14:00:00 12,2 8,7 0,0
16.10.2018 13:00:00 13,7 6,3 0,0
16.10.2018 12:00:00 14,0 5,9 0,0
16.10.2018 11:00:00 10,0 7,0 0,2
16.10.2018 10:00:00 9,8 6,2 0,0
16.10.2018 09:00:00 9,4 4,7 0,0
16.10.2018 08:00:00 8,9 4,0 0,0
16.10.2018 07:00:00 7,7 3,5 0,0
16.10.2018 06:00:00 8,5 3,8 0,0
16.10.2018 05:00:00 8,4 3,8 0,0
16.10.2018 04:00:00 8,0 4,0 0,0
16.10.2018 03:00:00 8,0 3,6 0,0
16.10.2018 02:00:00 8,5 3,7 0,0
16.10.2018 01:00:00 8,2 4,2 0,0
16.10.2018 00:00:00 8,3 4,2 0,0
15.10.2018 23:00:00 6,8 5,4 0,0
15.10.2018 22:00:00 7,2 4,8 0,0
15.10.2018 21:00:00 7,7 5,2 0,0
15.10.2018 20:00:00 7,8 4,9 0,0
15.10.2018 19:00:00 8,8 4,5 0,0
15.10.2018 18:00:00 10,5 4,9 0,0
15.10.2018 17:00:00 11,1 5,7 0,0
15.10.2018 16:00:00 11,5 5,9 0,0
15.10.2018 15:00:00 12,3 6,4 0,0
15.10.2018 14:00:00 11,7 5,9 0,0
15.10.2018 13:00:00 11,8 5,6 0,0
15.10.2018 12:00:00 11,3 6,2 0,0
15.10.2018 11:00:00 9,4 5,5 0,0
15.10.2018 10:00:00 7,4 4,6 0,0
15.10.2018 09:00:00 5,7 4,0 0,0
15.10.2018 08:00:00 7,2 4,1 0,0
15.10.2018 07:00:00 7,5 4,3 0,0
15.10.2018 06:00:00 7,5 4,6 0,0
15.10.2018 05:00:00 6,3 4,4 0,0
15.10.2018 04:00:00 6,3 4,9 0,0
15.10.2018 03:00:00 4,7 4,3 0,0
15.10.2018 02:00:00 4,8 4,6 0,0
15.10.2018 01:00:00 4,2 4,1 0,0
15.10.2018 00:00:00 3,9 3,7 0,0
14.10.2018 23:00:00 3,6 3,4 0,0
14.10.2018 22:00:00 4,2 3,8 0,0
14.10.2018 21:00:00 4,9 4,1 0,0
14.10.2018 20:00:00 6,0 3,9 0,0
14.10.2018 19:00:00 6,0 4,4 0,0
14.10.2018 18:00:00 6,6 5,1 0,0
14.10.2018 17:00:00 7,9 5,2 0,0
14.10.2018 16:00:00 9,2 5,0 0,0
14.10.2018 15:00:00 10,8 5,4 0,0
14.10.2018 14:00:00 9,2 7,3 0,0
14.10.2018 13:00:00 9,7 7,0 0,0
14.10.2018 12:00:00 7,5 6,9 0,0
14.10.2018 11:00:00 6,0 5,6 0,0
14.10.2018 10:00:00 5,1 4,9 0,0
14.10.2018 09:00:00 4,5 4,2 0,0
14.10.2018 08:00:00 4,5 3,9 0,0
14.10.2018 07:00:00 5,3 4,6 0,0
14.10.2018 06:00:00 5,2 4,7 0,2
14.10.2018 05:00:00 5,8 4,7 0,4
14.10.2018 04:00:00 6,5 5,8 2,0
14.10.2018 03:00:00 7,0 6,4 1,2
14.10.2018 02:00:00 7,1 6,7 0,4
14.10.2018 01:00:00 7,1 6,8 0,4
14.10.2018 00:00:00 7,3 6,8 0,8
13.10.2018 23:00:00 7,4 7,1 0,6
13.10.2018 22:00:00 7,2 7,1 3,0
13.10.2018 21:00:00 7,8 7,7 3,2
13.10.2018 20:00:00 8,4 8,3 3,0
13.10.2018 19:00:00 8,4 8,3 3,8
13.10.2018 18:00:00 8,5 8,3 2,6
13.10.2018 17:00:00 8,6 8,3 2,2
13.10.2018 16:00:00 8,7 8,4 1,8
13.10.2018 15:00:00 8,9 8,4 2,2
13.10.2018 14:00:00 9,2 8,8 1,4
13.10.2018 13:00:00 9,6 8,7 1,0
13.10.2018 12:00:00 10,1 9,0 0,2
13.10.2018 11:00:00 10,0 8,3 0,0
13.10.2018 10:00:00 10,0 8,1 0,0
13.10.2018 09:00:00 9,5 7,0 0,0
13.10.2018 08:00:00 8,9 7,3 0,0
13.10.2018 07:00:00 9,5 6,7 0,0
13.10.2018 06:00:00 9,7 7,1 0,0
13.10.2018 05:00:00 10,2 6,4 0,0
13.10.2018 04:00:00 9,8 6,7 0,0
13.10.2018 03:00:00 9,9 6,8 0,0
13.10.2018 02:00:00 10,1 6,9 0,0
13.10.2018 01:00:00 10,7 7,1 0,0
13.10.2018 00:00:00 11,0 7,8 0,0
12.10.2018 23:00:00 10,8 7,7 0,2
12.10.2018 22:00:00 11,4 7,4 0,0
12.10.2018 21:00:00 10,9 7,1 0,0
12.10.2018 20:00:00 10,1 7,7 0,0
12.10.2018 19:00:00 9,6 8,6 0,4
12.10.2018 18:00:00 10,7 9,4 1,2
12.10.2018 17:00:00 10,8 10,0 1,4
12.10.2018 16:00:00 10,9 9,5 2,0
12.10.2018 15:00:00 12,8 8,1 0,2
12.10.2018 14:00:00 14,8 5,8 0,0
12.10.2018 13:00:00 14,3 6,7 0,0
12.10.2018 12:00:00 12,3 7,0 0,2
12.10.2018 11:00:00 12,6 7,6 0,0
12.10.2018 10:00:00 10,7 9,0 1,8
12.10.2018 09:00:00 10,8 6,9 0,0
12.10.2018 08:00:00 9,8 5,7 0,0
12.10.2018 07:00:00 9,2 6,2 0,0
12.10.2018 06:00:00 7,9 6,1 0,0
12.10.2018 05:00:00 7,3 6,0 0,0
12.10.2018 04:00:00 6,6 5,4 0,0
12.10.2018 03:00:00 6,8 5,7 0,2
12.10.2018 02:00:00 6,2 5,7 0,0
12.10.2018 01:00:00 6,0 5,2 0,0
12.10.2018 00:00:00 7,2 5,8 0,0
11.10.2018 23:00:00 8,3 6,2 0,0
11.10.2018 22:00:00 10,0 7,2 0,0
11.10.2018 21:00:00 10,9 7,8 0,0
11.10.2018 20:00:00 11,8 9,4 0,4
11.10.2018 19:00:00 14,9 10,4 0,0
11.10.2018 18:00:00 15,4 10,2 0,0
11.10.2018 17:00:00 15,6 10,6 0,0
11.10.2018 16:00:00 15,8 11,0 0,0
11.10.2018 15:00:00 16,0 11,7 0,0
11.10.2018 14:00:00 15,3 11,4 0,0
11.10.2018 13:00:00 15,7 11,9 0,0
11.10.2018 12:00:00 15,2 11,5 0,0
11.10.2018 11:00:00 14,6 11,2 0,0
11.10.2018 10:00:00 12,5 10,5 0,0
11.10.2018 09:00:00 12,7 10,1 0,0
11.10.2018 08:00:00 11,2 9,2 0,0
11.10.2018 07:00:00 12,0 9,2 0,0

tt = Température de l'air
td = dewpoint
rr = Quantités de précipitations

stations d'obs. à proximité